SCP
0 0 0 0 0 0 0 0 0 0 0 0 0 0 0 0 0 0 0 0 0 0 0 0 0 0 0 0 0 0 0 0 0 0 0 0 0 0 0 -0 0 0 0 0 0 0 0 0 0 0 0 0 0 0
0 0 0 0 0 0 0 0 0 0 0 0 0 0 0 0 0 0 0 0 0 0 0 0 -0 -0 -0 -0 0 0 0 0 0 0 0 0 0 0 0 -0 -0 0 0 0 0 0 0 0 0 0 0 0 0 0
0 0 0 0 0 0 0 0 0 0 0 0 0 0 0 0 0 0 0 0 0 0 0 0 0 0 0 0 0 0 0 0 0 0 0 0 0 0 0 0 -0 0 0 0 0 0 0 0 0 0 0 0 0 -0
0 0 0 0 0 0 0 0 0 0 0 0 0 0 0 0 0 0 0 0 0 0 0 0 0 0 0 0 0 0 0 0 0 0 0 0 0 0 0 0 -0 0 0 0 0 0 0 0 0 0 0 0 0 0
0 0 0 0 0 0 0 0 0 0 0 0 0 0 0 0 0 0 0 0 0 0 0 -0 -0 -0 0 0 0 0 0 0 0 0 0 0 0 0 0 0 -0 -0 0 0 0 0 0 0 0 0 0 0 0 0
0 0 0 0 0 0 0 0 0 0 0 0 0 0 0 0 0 0 0 0 0 0 0 0 0 -0 0 0 0 0 0 0 0 0 0 0 -0 0 0 0 -0 0 0 0 0 -0 0 0 -0 0 0 -0 0 0
0 0 0 0 0 0 0 0 0 0 0 0 0 0 0 0 0 0 0 0 0 0 0 0 0 0 0 0 0 0 0 0 0 0 0 0 0 0 0 0 -0 -0 -0 0 -0 -0 -0 -0 0 0 0 0 0 0
0 0 0 0 0 0 0 0 0 0 0 0 0 0 0 0 0 0 0 -0 0 0 0 0 0 0 0 0 0 0 0 0 0 0 0 0 0 0 0 -0 -0 -0 -0 -0 -0 0 0 0 0 0 0 0 -0 -0
0 0 0 0 0 0 0 0 0 0 0 0 0 0 0 0 0 0 0 0 0 0 0 0 0 0 0 0 0 0 0 0 0 0 0 0 0 0 -0 -0 -0 0 0 0 0 0 -0 0 0 -0 -0 0 -0 0
0 0 0 0 0 0 0 0 0 0 0 0 0 0 0 0 0 0 0 0 0 0 0 0 0 0 0 0 0 0 0 0 0 0 0 0 0 -0 -0 -0 -0 -0 0 -0 -0 0 0 -0 -0 0 0 0 0 0
0 0 0 0 0 0 0 0 0 0 0 0 0 0 0 0 0 0 0 -0 0 0 0 0 0 -0 0 0 0 0 0 0 0 0 0 0 0 0 -0 0 -0 0 0 0 -0 0 0 -0 -0 -0 -0 -0 0 0
0 0 0 0 0 0 0 0 0 0 0 0 0 0 0 0 0 -0 -0 -0 0 0 0 0 -0 0 0 0 0 0 0 0 0 0 0 0 0 0 0 0 0 0 -0 -0 -0 0 -0 -0 -0 -0 -0 -0 0 0
0 0 0 0 0 0 0 0 0 0 0 0 0 0 0 0 -0 -0 0 -0 0 -0 -0 0 -0 0 0 0 0 0 0 0 0 0 0 0 0 0 0 0 0 0 0 0 -0 -0 0 0 0 0 0 0 0 0
0 0 0 -0 -0 0 0 0 0 0 0 0 0 0 -0 0 0 -0 0 -0 0 -0 0 0 0 0 0 0 0 0 0 0 0 0 0 0 0 -0 0 0 0 0 0 0 0 0 0 0 0 0 -0 -0 -0 0
0 0 -0 -0 -0 0 0 0 0 0 0 0 0 0 0 -0 0 -0 0 0 0 0 0 0 0 0 0 0 0 0 0 0 0 0 0 0 0 0 0 0 0 0 0 0 0 0 0 0 0 0 0 0 0 -0
-0 0 0 0 0 0 0 0 0 0 0 0 0 0 0 0 -0 -0 0 -0 0 0 -0 0 0 0 0 0 0 0 0 0 0 0 0 0 0 0 0 0 0 0 0 -0 -0 -0 0 -0 0 -0 0 -0 -0 0
-0 0 0 0 0 0 0 0 0 0 0 0 0 0 0 0 0 0 0 -0 0 0 0 0 0 0 0 0 -0 -0 0 0 0 0 0 0 0 0 0 0 -0 0 0 0 0 0 0 0 0 0 -0 0 0 0
-0 0 0 0 0 0 0 0 0 0 0 0 0 0 0 -0 0 0 -0 -0 -0 0 0 0 0 0 0 0 0 0 0 0 0 0 0 0 0 0 0 0 -0 -0 -0 -0 -0 0 0 0 0 0 0 0 -0 -0
-0 0 -0 0 0 0 0 0 0 0 0 0 0 0 0 0 0 0 0 0 0 0 0 0 0 0 0 0 0 0 0 0 -0 -0 0 -0 -0 0 0 0 0 0 0 -0 -0 -0 -0 -0 -0 0 0 0 -0 -0
0 -0 0 0 0 0 0 0 0 0 0 0 0 0 0 0 0 0 0 -0 0 0 0 0 0 0 0 0 0 0 0 -0 -0 -0 -0 -0 -0 -0 -0 -0 0 -0 0 -0 -0 0 -0 0 0 0 0 0 0 0
0 0 0 0 0 0 0 0 0 0 0 0 0 0 0 0 0 0 0 0 0 0 0 0 0 -0 -0 -0 0 0 0 0 0 0 -0 -0 -0 0 0 -0 0 -0 -0 0 0 0 0 0 0 0 0 0 0 -0
0 0 0 0 0 0 0 0 0 0 0 0 0 0 0 0 0 0 0 0 0 0 0 0 0 -0 -0 0 0 -0 0 0 0 -0 -0 -0 -0 0 0 -0 -0 -0 -0 0 0 0 0 0 0 0 0 -0 -0 -0
0 0 0 0 0 0 0 0 0 0 0 0 0 0 0 0 0 0 0 0 0 0 0 0 0 -0 -0 -0 0 0 0 0 0 0 -0 -0 0 0 0 0 0 -0 -0 -0 0 0 0 0 0 0 0 -0 -0 -0
0 0 0 0 0 0 0 0 0 0 0 0 0 0 0 0 -0 0 0 0 0 0 0 0 0 -0 0 -0 0 0 0 0 0 -0 -0 -0 -0 0 0 0 -0 0 0 0 -0 -0 -0 -0 -0 -0 -0 -0 -0 -0
0 0 0 0 0 0 0 0 0 0 0 0 0 0 0 -0 0 0 0 0 0 0 0 0 0 0 -0 -0 0 0 -0 0 0 -0 -0 0 -0 0 -0 0 0 0 0 0 0 0 0 -0 -0 -0 -0 -0 -0 -0
-0 -0 0 0 0 0 0 0 0 0 0 0 0 0 0 0 0 0 0 0 0 0 0 0 0 0 -0 -0 -0 -0 -0 -0 -0 -0 -0 0 0 -0 -0 0 0 0 0 0 0 0 0 0 0 -0 -0 -0 0 -0
0 0 0 0 0 0 0 0 0 0 0 0 0 0 0 0 0 0 0 0 0 0 0 0 0 0 0 0 0 0 -0 0 -0 -0 0 0 -0 0 -0 -0 -0 -0 0 0 0 0 0 0 0 0 0 0 0 0
0 0 0 0 0 0 0 0 0 0 0 0 0 0 0 0 0 0 0 0 0 0 0 0 0 0 0 0 0 0 0 -0 -0 -0 0 0 -0 -0 -0 0 0 -0 0 0 -0 0 0 0 0 0 0 0 -0 0
0 0 0 0 0 0 0 0 0 0 0 0 0 0 0 0 0 0 0 0 0 0 0 0 0 0 0 0 0 0 -0 -0 -0 -0 -0 0 0 0 0 0 0 0 -0 0 -0 -0 -0 0 0 0 0 0 0 -0
0 0 0 0 0 0 0 0 0 0 0 0 0 0 0 0 0 0 0 0 0 0 0 0 0 0 0 0 0 0 0 0 -0 -0 -0 -0 0 -0 0 0 0 0 -0 -0 -0 0 0 0 0 0 -0 0 0 0
0 0 0 0 0 0 -0 -0 -0 0 -0 0 0 0 0 0 0 0 0 0 0 0 0 0 0 0 0 0 0 0 0 0 0 0 0 0 0 -0 -0 -0 -0 -0 -0 0 -0 -0 -0 -0 -0 0 0 -0 -0 0
0 0 0 0 0 -0 -0 -0 -0 -0 -0 -0 0 0 0 0 0 0 0 -0 0 0 0 0 0 0 0 0 0 0 0 0 0 0 0 0 0 0 -0 -0 -0 -0 -0 -0 0 0 -0 0 -0 -0 -0 -0 0 0
0 0 0 0 0 0 0 0 -0 -0 -0 0 0 0 0 0 0 0 0 0 -0 0 0 0 0 0 0 0 0 0 0 0 0 0 0 0 0 0 0 0 0 -0 -0 -0 0 0 0 0 0 0 0 0 -0 -0
Wind_Speed_500mb
48 48 48 46 46 45 44 44 43 42 40 35 33 29 27 20 25 24 27 28 34 35 62 64 55 48 45 39 23 33 28 22 18 13 16 23 19 23 25 33 33 30 23 28 29 20 18 32 43 45 32 27 36 45
50 51 50 50 49 48 47 45 44 43 42 37 34 31 33 27 28 30 31 26 33 43 62 75 76 74 75 79 70 58 39 50 15 8 10 9 19 19 31 30 34 16 26 25 33 17 35 50 49 44 11 26 32 30
53 52 51 51 51 50 50 48 46 44 42 37 36 33 35 31 26 30 41 33 39 52 64 48 42 43 43 49 53 62 69 74 66 61 37 14 23 19 26 29 36 35 45 29 33 40 45 62 61 55 31 25 35 35
51 52 52 52 53 53 52 50 47 43 40 36 37 36 34 27 27 35 39 33 37 30 21 36 34 50 54 54 54 63 75 63 58 47 26 13 18 21 23 34 35 39 38 42 42 48 50 54 56 41 52 36 40 33
51 51 51 52 53 53 52 50 46 43 39 37 38 36 35 31 30 37 38 42 39 34 22 67 78 56 19 29 42 50 67 67 57 35 13 19 40 21 30 34 40 45 37 28 33 50 39 44 50 42 47 39 47 46
50 49 49 49 46 43 43 44 43 41 37 38 39 36 37 29 30 33 22 7 8 25 17 12 37 64 23 21 32 41 47 54 47 15 13 21 59 17 14 31 55 61 55 52 58 69 59 59 54 54 56 55 52 51
44 41 38 38 39 40 39 41 41 34 33 41 39 38 40 30 33 30 16 9 8 13 12 16 18 6 16 21 26 36 41 36 34 16 15 42 57 18 9 33 62 60 47 39 66 65 67 62 60 54 54 53 53 53
50 46 45 47 45 43 41 41 39 33 36 39 38 41 41 40 43 43 42 49 44 30 13 8 13 31 8 19 16 18 14 15 16 12 14 18 28 13 14 37 45 46 41 40 43 44 49 49 50 51 52 50 52 51
50 47 47 46 43 39 40 42 34 33 38 37 39 36 28 11 12 13 18 9 20 25 9 13 12 22 12 31 25 15 10 6 12 9 11 11 11 14 22 26 32 35 35 36 31 28 22 30 35 40 47 54 55 53
57 54 51 52 45 35 39 38 26 38 36 28 24 11 11 13 5 12 9 9 13 17 17 14 30 23 31 16 8 10 8 7 6 12 2 7 14 45 43 32 25 28 28 24 21 22 23 28 34 42 42 51 48 39
60 57 52 49 43 42 42 25 26 31 17 8 5 6 8 16 14 8 7 9 13 11 17 21 33 27 21 8 5 8 7 7 6 3 5 6 7 7 46 59 49 42 35 26 23 27 33 45 27 17 14 4 14 26
45 40 44 43 37 38 33 23 22 20 11 9 17 25 19 7 7 7 7 9 11 10 9 17 22 24 12 7 5 7 7 6 10 5 5 6 9 44 55 60 49 36 24 28 29 43 24 28 20 13 13 14 15 17
40 41 36 35 32 31 21 21 22 19 16 14 6 6 8 9 9 10 13 7 7 9 27 40 23 8 6 7 8 5 7 12 24 5 3 5 32 59 64 58 44 20 14 6 2 12 7 15 15 8 9 20 34 41
27 26 31 36 29 25 25 19 18 17 9 7 6 8 9 11 12 8 9 11 22 25 32 33 16 7 7 5 5 7 7 6 7 8 11 13 54 66 51 47 46 10 4 15 14 18 24 40 36 34 49 53 55 60
25 24 28 37 35 22 19 19 24 21 7 7 9 9 14 22 14 14 16 20 21 28 32 28 11 6 5 7 5 8 6 6 9 7 7 45 66 46 42 43 47 47 40 33 35 37 50 49 55 56 51 47 48 41
23 24 26 15 14 17 19 25 26 14 7 9 14 16 26 21 18 10 19 24 28 32 32 8 4 6 6 6 5 8 16 10 8 6 45 49 32 33 32 34 35 38 48 42 38 39 38 40 43 45 42 43 34 30
21 24 20 18 16 20 29 28 14 11 10 10 14 23 26 25 21 18 20 21 24 19 6 7 7 7 11 8 4 6 8 10 34 49 30 27 27 30 37 38 37 35 35 37 38 38 45 52 52 49 49 40 32 32
21 25 17 12 20 27 24 11 8 10 12 19 18 20 14 16 20 20 15 13 12 10 14 5 7 5 8 10 9 6 18 46 37 43 32 34 32 28 33 37 36 42 45 43 43 44 38 39 40 37 34 33 33 30
15 13 12 22 29 11 11 10 11 9 18 21 22 21 19 18 15 16 18 17 18 13 16 9 5 3 5 8 12 38 37 34 42 43 11 22 36 38 39 38 35 39 37 36 40 37 27 30 30 23 21 17 20 19
17 15 15 24 26 7 7 7 11 11 13 4 8 15 11 11 11 12 14 14 12 6 6 6 5 11 14 31 27 34 36 34 33 34 15 18 17 19 19 22 21 22 26 27 26 19 21 21 18 17 15 14 14 14
17 20 23 23 14 8 6 5 9 11 14 14 9 5 8 9 9 8 7 8 3 5 7 9 23 31 25 21 14 18 24 20 31 16 10 13 15 16 18 22 23 23 24 24 25 25 24 22 18 17 16 16 14 13
19 27 19 15 6 8 10 11 11 13 10 15 14 6 2 5 7 4 10 2 2 2 8 23 34 33 21 16 12 13 10 17 16 13 10 16 17 17 15 15 14 19 18 17 17 18 19 19 19 17 18 18 20 25
24 18 8 12 9 7 10 10 8 7 5 6 5 5 4 5 3 6 1 3 2 4 15 23 28 14 20 18 16 12 13 13 9 15 15 16 15 16 18 19 15 11 15 16 14 12 16 20 18 18 17 19 22 29
16 10 8 9 12 8 6 8 8 7 7 7 6 5 4 4 1 2 2 3 4 6 13 24 21 23 16 16 18 18 20 19 19 21 22 19 23 21 22 24 23 18 14 14 14 12 12 13 13 15 17 17 20 21
6 8 8 9 10 8 10 6 7 8 8 12 4 5 5 7 3 2 2 3 3 5 11 18 22 22 19 17 17 17 21 22 18 19 22 23 25 21 20 20 19 15 13 6 9 9 11 11 13 14 16 16 19 21
9 14 10 13 8 7 7 5 6 6 6 2 4 7 6 4 2 1 3 4 3 3 7 13 19 17 14 15 15 16 18 20 23 20 25 26 24 18 20 21 21 19 10 10 7 7 8 14 12 12 13 16 24 24
7 9 13 12 6 6 7 7 8 8 5 6 5 7 7 3 2 3 8 4 4 2 4 6 7 15 20 12 8 7 8 13 11 10 15 22 24 18 18 20 27 21 25 19 11 9 14 19 19 18 20 18 20 26
9 8 9 18 12 11 5 5 1 4 4 8 5 2 3 4 3 2 3 7 5 2 1 1 3 5 18 16 7 6 7 7 11 11 8 4 20 19 17 15 19 23 26 19 22 17 18 18 21 23 24 27 29 22
11 13 8 7 8 7 8 7 4 6 9 8 5 3 3 6 2 2 6 6 5 2 2 2 2 3 8 20 12 11 8 9 12 15 18 19 17 19 18 19 18 17 19 24 16 21 21 22 31 36 32 27 23 23
15 16 10 9 6 7 4 10 8 7 4 5 1 3 4 6 7 5 4 6 4 3 2 0 4 4 1 2 7 11 9 8 7 11 13 14 18 16 15 14 15 15 15 18 24 33 38 38 35 30 27 25 21 21
3 7 5 11 8 11 13 12 6 4 2 2 2 4 7 7 9 8 7 8 8 7 4 3 2 5 3 3 3 1 4 6 1 5 6 9 10 11 13 14 12 11 11 13 15 18 20 20 19 19 18 18 18 19
11 11 4 5 4 13 16 13 8 7 7 7 5 6 7 6 5 8 11 12 9 6 4 2 2 1 4 5 6 7 5 5 2 10 1 4 6 3 8 12 10 9 9 10 12 12 12 13 15 15 17 17 15 16
21 17 20 17 9 11 15 10 8 6 5 6 7 12 11 8 5 6 12 15 11 8 6 4 2 3 5 6 6 6 8 6 3 5 18 10 2 4 2 5 6 6 7 9 10 11 11 11 11 11 12 14 14 16
Wind_Direction_500mb
296 297 298 301 303 306 308 307 307 310 308 310 309 307 300 289 295 297 292 273 272 271 281 278 277 273 278 266 260 269 310 262 247 241 255 271 268 281 279 267 263 258 260 263 263 265 263 246 262 259 282 296 287 297
293 294 297 299 301 302 303 302 303 304 304 304 304 299 302 283 289 293 288 288 273 267 271 284 281 274 265 260 262 261 251 273 268 268 261 283 275 275 274 273 272 271 271 270 260 262 301 295 289 303 261 296 280 289
294 295 296 296 297 298 299 300 300 299 300 299 302 295 297 287 286 275 289 283 284 287 292 279 280 284 273 257 251 249 254 257 258 256 270 267 257 274 271 272 280 267 254 245 255 255 256 263 270 270 282 275 262 257
293 293 294 294 295 296 296 297 297 296 294 298 304 295 297 286 285 290 287 285 278 276 283 290 296 287 281 268 254 247 255 261 264 263 251 241 246 263 268 281 282 269 277 269 262 252 255 260 268 268 279 277 274 264
293 293 293 293 295 296 298 298 296 292 290 290 301 293 296 281 291 296 285 272 261 247 280 294 300 301 287 258 252 257 254 254 254 245 226 243 255 254 253 267 267 269 268 260 257 264 266 252 261 262 265 266 260 275
292 293 294 295 297 300 301 302 297 292 292 291 296 291 297 281 295 308 310 110 238 242 274 296 299 295 280 248 248 252 253 256 253 242 233 241 250 244 256 261 267 271 276 242 256 257 254 252 256 259 268 266 269 269
299 299 298 297 296 296 300 305 304 293 290 295 293 295 295 282 279 268 247 192 141 292 283 291 287 286 258 255 269 272 268 251 233 238 234 258 260 235 252 264 275 279 269 261 236 239 250 252 255 257 255 255 254 255
291 292 293 293 293 288 293 299 297 289 293 296 295 298 295 288 280 271 265 257 253 270 248 264 270 279 311 282 287 262 248 227 227 234 258 248 265 211 250 255 264 261 267 256 251 253 255 257 257 256 256 257 260 260
287 289 291 290 289 285 285 292 290 296 298 299 302 303 301 257 231 232 222 300 227 211 244 239 263 302 310 307 302 297 243 228 217 225 224 234 235 226 245 262 282 287 283 277 269 267 276 282 280 275 260 249 250 255
276 277 279 284 290 286 286 290 291 304 301 307 316 249 221 159 243 314 269 209 205 219 227 261 268 267 300 299 283 297 234 254 237 219 200 237 267 265 282 329 331 327 306 302 277 273 290 285 280 281 274 267 273 247
279 275 272 274 277 273 284 277 292 300 309 261 254 282 351 333 287 230 249 229 205 235 221 245 250 283 296 257 284 266 313 284 273 81 266 254 251 33 338 323 314 306 291 286 249 262 276 277 288 304 301 209 242 252
272 272 271 264 270 274 256 273 281 274 244 267 289 291 278 227 214 239 223 214 215 251 223 253 324 318 289 262 272 264 269 272 263 145 256 273 357 327 322 318 317 303 280 259 247 282 279 276 294 283 276 297 258 229
277 267 262 264 261 277 260 285 257 256 257 286 228 249 225 181 230 231 204 207 233 269 315 317 322 295 291 259 252 269 255 243 320 227 225 315 314 334 339 339 342 12 3 328 247 317 354 321 285 246 141 148 134 130
265 263 261 252 257 264 260 259 254 206 229 229 227 251 229 193 236 256 334 308 305 307 305 321 316 258 261 252 263 263 269 324 296 344 5 333 329 329 339 350 357 55 103 50 62 43 70 92 103 118 119 121 124 122
264 261 270 247 247 239 249 246 193 202 241 226 224 241 228 255 285 285 305 290 310 318 328 318 294 250 249 265 232 288 298 307 34 340 294 318 322 339 353 11 25 57 68 54 87 87 89 99 107 119 123 124 128 130
252 271 255 221 243 229 228 189 194 189 244 231 231 246 257 254 275 325 355 344 335 322 318 287 282 268 254 285 327 359 334 356 332 297 311 326 348 353 15 35 40 46 63 63 75 93 100 104 112 120 127 122 102 110
251 263 247 238 237 206 191 185 176 212 232 232 245 243 263 285 284 316 343 331 328 324 329 326 310 343 320 328 51 15 355 294 302 309 334 10 8 22 46 53 52 55 66 72 83 93 103 107 112 111 105 96 99 105
247 247 228 200 178 175 178 175 215 231 244 246 260 261 279 268 281 290 312 313 332 316 312 346 328 297 330 336 340 353 323 318 337 342 29 42 48 58 58 57 60 59 66 72 82 84 87 96 96 93 97 98 100 96
212 190 206 187 170 158 183 205 221 258 242 251 249 255 268 278 298 305 294 295 279 290 294 276 243 335 360 316 320 307 321 328 329 345 11 68 67 65 67 68 67 64 62 65 62 71 74 63 75 77 79 92 89 96
162 188 189 177 165 200 215 216 214 256 273 328 262 262 289 311 310 298 290 286 278 276 270 341 16 316 287 302 307 306 320 337 338 340 61 65 65 68 59 50 61 62 60 59 58 63 63 65 66 70 77 87 90 93
160 178 161 160 201 222 256 263 239 253 273 275 298 305 298 291 287 266 283 295 69 23 329 308 311 324 338 335 338 323 333 333 327 326 20 43 46 53 56 53 58 57 54 47 58 59 57 58 58 62 64 66 82 101
156 155 154 186 212 211 253 235 255 306 263 278 316 310 304 297 268 33 312 74 39 175 312 324 333 338 354 21 28 351 335 345 2 25 45 37 29 26 36 40 53 68 58 50 42 52 56 56 57 61 66 78 95 103
157 171 174 183 219 227 263 205 229 247 260 262 240 174 237 263 356 344 297 66 73 1 342 345 348 14 25 24 27 31 9 12 36 45 37 41 48 40 42 42 52 67 63 51 47 74 68 62 62 66 65 86 105 110
171 182 200 203 217 233 205 214 225 248 253 248 244 131 215 194 200 213 263 111 65 353 346 3 24 42 43 38 29 26 28 27 29 45 39 36 38 53 47 50 39 50 87 72 76 96 87 75 78 94 85 104 121 115
170 221 203 240 224 223 204 220 212 229 245 212 253 138 177 180 227 165 193 182 64 7 2 2 24 33 27 15 18 19 20 19 23 46 41 49 49 38 45 48 52 55 33 58 81 101 109 96 85 96 103 114 125 136
229 205 201 196 197 223 205 225 212 296 296 250 296 120 195 236 215 155 115 132 102 40 12 14 15 17 16 10 3 357 2 13 5 53 35 30 28 30 37 38 53 47 30 79 93 118 129 135 101 94 108 117 127 135
249 208 197 217 218 197 257 254 235 253 267 232 205 176 201 207 199 87 144 150 132 92 45 21 7 25 19 2 16 3 10 17 17 32 23 23 24 42 38 35 28 21 16 35 38 97 122 133 127 115 122 119 132 141
261 287 212 182 199 228 263 285 249 240 288 266 233 291 33 59 83 75 149 189 163 83 43 91 31 48 21 29 52 55 27 2 356 8 2 42 39 49 39 38 34 36 31 42 47 72 98 118 130 125 126 125 127 128
230 239 212 207 220 222 212 216 280 249 257 285 347 36 83 78 150 157 162 181 173 190 281 187 29 360 342 11 35 42 25 49 39 43 53 48 42 32 28 28 33 38 33 38 79 82 93 109 118 120 121 121 128 122
233 194 202 179 204 253 239 194 234 273 312 320 61 151 95 135 156 146 140 170 189 214 219 218 4 358 13 312 22 42 36 51 21 60 50 46 25 16 21 32 41 42 52 67 81 87 95 103 111 118 121 117 114 114
139 202 225 227 228 225 209 202 175 118 92 109 127 126 140 204 199 193 218 213 214 218 232 251 347 14 28 41 31 42 37 355 255 32 58 43 14 14 35 40 41 52 74 83 95 107 113 117 126 133 137 133 133 136
195 210 275 310 289 188 174 183 184 207 165 165 152 139 145 154 197 213 211 195 203 193 218 219 275 357 62 58 47 34 75 5 199 221 301 69 85 72 54 45 44 67 88 97 99 110 130 132 138 138 141 144 148 155
212 203 206 213 223 206 202 190 183 193 184 186 168 185 193 193 184 181 180 189 192 195 184 162 122 100 78 70 65 36 43 355 322 227 229 247 6 34 124 97 101 89 93 102 107 109 110 124 142 152 159 163 165 167
Wind_Speed_850mb
48 48 48 46 46 45 44 44 43 42 40 35 33 29 27 20 25 24 27 28 34 35 62 64 55 48 45 39 23 33 28 22 18 13 16 23 19 23 25 33 33 30 23 28 29 20 18 32 43 45 32 27 36 45
50 51 50 50 49 48 47 45 44 43 42 37 34 31 33 27 28 30 31 26 33 43 62 75 76 74 75 79 70 58 39 50 15 8 10 9 19 19 31 30 34 16 26 25 33 17 35 50 49 44 11 26 32 30
53 52 51 51 51 50 50 48 46 44 42 37 36 33 35 31 26 30 41 33 39 52 64 48 42 43 43 49 53 62 69 74 66 61 37 14 23 19 26 29 36 35 45 29 33 40 45 62 61 55 31 25 35 35
51 52 52 52 53 53 52 50 47 43 40 36 37 36 34 27 27 35 39 33 37 30 21 36 34 50 54 54 54 63 75 63 58 47 26 13 18 21 23 34 35 39 38 42 42 48 50 54 56 41 52 36 40 33
51 51 51 52 53 53 52 50 46 43 39 37 38 36 35 31 30 37 38 42 39 34 22 67 78 56 19 29 42 50 67 67 57 35 13 19 40 21 30 34 40 45 37 28 33 50 39 44 50 42 47 39 47 46
50 49 49 49 46 43 43 44 43 41 37 38 39 36 37 29 30 33 22 7 8 25 17 12 37 64 23 21 32 41 47 54 47 15 13 21 59 17 14 31 55 61 55 52 58 69 59 59 54 54 56 55 52 51
44 41 38 38 39 40 39 41 41 34 33 41 39 38 40 30 33 30 16 9 8 13 12 16 18 6 16 21 26 36 41 36 34 16 15 42 57 18 9 33 62 60 47 39 66 65 67 62 60 54 54 53 53 53
50 46 45 47 45 43 41 41 39 33 36 39 38 41 41 40 43 43 42 49 44 30 13 8 13 31 8 19 16 18 14 15 16 12 14 18 28 13 14 37 45 46 41 40 43 44 49 49 50 51 52 50 52 51
50 47 47 46 43 39 40 42 34 33 38 37 39 36 28 11 12 13 18 9 20 25 9 13 12 22 12 31 25 15 10 6 12 9 11 11 11 14 22 26 32 35 35 36 31 28 22 30 35 40 47 54 55 53
57 54 51 52 45 35 39 38 26 38 36 28 24 11 11 13 5 12 9 9 13 17 17 14 30 23 31 16 8 10 8 7 6 12 2 7 14 45 43 32 25 28 28 24 21 22 23 28 34 42 42 51 48 39
60 57 52 49 43 42 42 25 26 31 17 8 5 6 8 16 14 8 7 9 13 11 17 21 33 27 21 8 5 8 7 7 6 3 5 6 7 7 46 59 49 42 35 26 23 27 33 45 27 17 14 4 14 26
45 40 44 43 37 38 33 23 22 20 11 9 17 25 19 7 7 7 7 9 11 10 9 17 22 24 12 7 5 7 7 6 10 5 5 6 9 44 55 60 49 36 24 28 29 43 24 28 20 13 13 14 15 17
40 41 36 35 32 31 21 21 22 19 16 14 6 6 8 9 9 10 13 7 7 9 27 40 23 8 6 7 8 5 7 12 24 5 3 5 32 59 64 58 44 20 14 6 2 12 7 15 15 8 9 20 34 41
27 26 31 36 29 25 25 19 18 17 9 7 6 8 9 11 12 8 9 11 22 25 32 33 16 7 7 5 5 7 7 6 7 8 11 13 54 66 51 47 46 10 4 15 14 18 24 40 36 34 49 53 55 60
25 24 28 37 35 22 19 19 24 21 7 7 9 9 14 22 14 14 16 20 21 28 32 28 11 6 5 7 5 8 6 6 9 7 7 45 66 46 42 43 47 47 40 33 35 37 50 49 55 56 51 47 48 41
23 24 26 15 14 17 19 25 26 14 7 9 14 16 26 21 18 10 19 24 28 32 32 8 4 6 6 6 5 8 16 10 8 6 45 49 32 33 32 34 35 38 48 42 38 39 38 40 43 45 42 43 34 30
21 24 20 18 16 20 29 28 14 11 10 10 14 23 26 25 21 18 20 21 24 19 6 7 7 7 11 8 4 6 8 10 34 49 30 27 27 30 37 38 37 35 35 37 38 38 45 52 52 49 49 40 32 32
21 25 17 12 20 27 24 11 8 10 12 19 18 20 14 16 20 20 15 13 12 10 14 5 7 5 8 10 9 6 18 46 37 43 32 34 32 28 33 37 36 42 45 43 43 44 38 39 40 37 34 33 33 30
15 13 12 22 29 11 11 10 11 9 18 21 22 21 19 18 15 16 18 17 18 13 16 9 5 3 5 8 12 38 37 34 42 43 11 22 36 38 39 38 35 39 37 36 40 37 27 30 30 23 21 17 20 19
17 15 15 24 26 7 7 7 11 11 13 4 8 15 11 11 11 12 14 14 12 6 6 6 5 11 14 31 27 34 36 34 33 34 15 18 17 19 19 22 21 22 26 27 26 19 21 21 18 17 15 14 14 14
17 20 23 23 14 8 6 5 9 11 14 14 9 5 8 9 9 8 7 8 3 5 7 9 23 31 25 21 14 18 24 20 31 16 10 13 15 16 18 22 23 23 24 24 25 25 24 22 18 17 16 16 14 13
19 27 19 15 6 8 10 11 11 13 10 15 14 6 2 5 7 4 10 2 2 2 8 23 34 33 21 16 12 13 10 17 16 13 10 16 17 17 15 15 14 19 18 17 17 18 19 19 19 17 18 18 20 25
24 18 8 12 9 7 10 10 8 7 5 6 5 5 4 5 3 6 1 3 2 4 15 23 28 14 20 18 16 12 13 13 9 15 15 16 15 16 18 19 15 11 15 16 14 12 16 20 18 18 17 19 22 29
16 10 8 9 12 8 6 8 8 7 7 7 6 5 4 4 1 2 2 3 4 6 13 24 21 23 16 16 18 18 20 19 19 21 22 19 23 21 22 24 23 18 14 14 14 12 12 13 13 15 17 17 20 21
6 8 8 9 10 8 10 6 7 8 8 12 4 5 5 7 3 2 2 3 3 5 11 18 22 22 19 17 17 17 21 22 18 19 22 23 25 21 20 20 19 15 13 6 9 9 11 11 13 14 16 16 19 21
9 14 10 13 8 7 7 5 6 6 6 2 4 7 6 4 2 1 3 4 3 3 7 13 19 17 14 15 15 16 18 20 23 20 25 26 24 18 20 21 21 19 10 10 7 7 8 14 12 12 13 16 24 24
7 9 13 12 6 6 7 7 8 8 5 6 5 7 7 3 2 3 8 4 4 2 4 6 7 15 20 12 8 7 8 13 11 10 15 22 24 18 18 20 27 21 25 19 11 9 14 19 19 18 20 18 20 26
9 8 9 18 12 11 5 5 1 4 4 8 5 2 3 4 3 2 3 7 5 2 1 1 3 5 18 16 7 6 7 7 11 11 8 4 20 19 17 15 19 23 26 19 22 17 18 18 21 23 24 27 29 22
11 13 8 7 8 7 8 7 4 6 9 8 5 3 3 6 2 2 6 6 5 2 2 2 2 3 8 20 12 11 8 9 12 15 18 19 17 19 18 19 18 17 19 24 16 21 21 22 31 36 32 27 23 23
15 16 10 9 6 7 4 10 8 7 4 5 1 3 4 6 7 5 4 6 4 3 2 0 4 4 1 2 7 11 9 8 7 11 13 14 18 16 15 14 15 15 15 18 24 33 38 38 35 30 27 25 21 21
3 7 5 11 8 11 13 12 6 4 2 2 2 4 7 7 9 8 7 8 8 7 4 3 2 5 3 3 3 1 4 6 1 5 6 9 10 11 13 14 12 11 11 13 15 18 20 20 19 19 18 18 18 19
11 11 4 5 4 13 16 13 8 7 7 7 5 6 7 6 5 8 11 12 9 6 4 2 2 1 4 5 6 7 5 5 2 10 1 4 6 3 8 12 10 9 9 10 12 12 12 13 15 15 17 17 15 16
21 17 20 17 9 11 15 10 8 6 5 6 7 12 11 8 5 6 12 15 11 8 6 4 2 3 5 6 6 6 8 6 3 5 18 10 2 4 2 5 6 6 7 9 10 11 11 11 11 11 12 14 14 16
Wind_Direction_850mb
296 297 298 301 303 306 308 307 307 310 308 310 309 307 300 289 295 297 292 273 272 271 281 278 277 273 278 266 260 269 310 262 247 241 255 271 268 281 279 267 263 258 260 263 263 265 263 246 262 259 282 296 287 297
293 294 297 299 301 302 303 302 303 304 304 304 304 299 302 283 289 293 288 288 273 267 271 284 281 274 265 260 262 261 251 273 268 268 261 283 275 275 274 273 272 271 271 270 260 262 301 295 289 303 261 296 280 289
294 295 296 296 297 298 299 300 300 299 300 299 302 295 297 287 286 275 289 283 284 287 292 279 280 284 273 257 251 249 254 257 258 256 270 267 257 274 271 272 280 267 254 245 255 255 256 263 270 270 282 275 262 257
293 293 294 294 295 296 296 297 297 296 294 298 304 295 297 286 285 290 287 285 278 276 283 290 296 287 281 268 254 247 255 261 264 263 251 241 246 263 268 281 282 269 277 269 262 252 255 260 268 268 279 277 274 264
293 293 293 293 295 296 298 298 296 292 290 290 301 293 296 281 291 296 285 272 261 247 280 294 300 301 287 258 252 257 254 254 254 245 226 243 255 254 253 267 267 269 268 260 257 264 266 252 261 262 265 266 260 275
292 293 294 295 297 300 301 302 297 292 292 291 296 291 297 281 295 308 310 110 238 242 274 296 299 295 280 248 248 252 253 256 253 242 233 241 250 244 256 261 267 271 276 242 256 257 254 252 256 259 268 266 269 269
299 299 298 297 296 296 300 305 304 293 290 295 293 295 295 282 279 268 247 192 141 292 283 291 287 286 258 255 269 272 268 251 233 238 234 258 260 235 252 264 275 279 269 261 236 239 250 252 255 257 255 255 254 255
291 292 293 293 293 288 293 299 297 289 293 296 295 298 295 288 280 271 265 257 253 270 248 264 270 279 311 282 287 262 248 227 227 234 258 248 265 211 250 255 264 261 267 256 251 253 255 257 257 256 256 257 260 260
287 289 291 290 289 285 285 292 290 296 298 299 302 303 301 257 231 232 222 300 227 211 244 239 263 302 310 307 302 297 243 228 217 225 224 234 235 226 245 262 282 287 283 277 269 267 276 282 280 275 260 249 250 255
276 277 279 284 290 286 286 290 291 304 301 307 316 249 221 159 243 314 269 209 205 219 227 261 268 267 300 299 283 297 234 254 237 219 200 237 267 265 282 329 331 327 306 302 277 273 290 285 280 281 274 267 273 247
279 275 272 274 277 273 284 277 292 300 309 261 254 282 351 333 287 230 249 229 205 235 221 245 250 283 296 257 284 266 313 284 273 81 266 254 251 33 338 323 314 306 291 286 249 262 276 277 288 304 301 209 242 252
272 272 271 264 270 274 256 273 281 274 244 267 289 291 278 227 214 239 223 214 215 251 223 253 324 318 289 262 272 264 269 272 263 145 256 273 357 327 322 318 317 303 280 259 247 282 279 276 294 283 276 297 258 229
277 267 262 264 261 277 260 285 257 256 257 286 228 249 225 181 230 231 204 207 233 269 315 317 322 295 291 259 252 269 255 243 320 227 225 315 314 334 339 339 342 12 3 328 247 317 354 321 285 246 141 148 134 130
265 263 261 252 257 264 260 259 254 206 229 229 227 251 229 193 236 256 334 308 305 307 305 321 316 258 261 252 263 263 269 324 296 344 5 333 329 329 339 350 357 55 103 50 62 43 70 92 103 118 119 121 124 122
264 261 270 247 247 239 249 246 193 202 241 226 224 241 228 255 285 285 305 290 310 318 328 318 294 250 249 265 232 288 298 307 34 340 294 318 322 339 353 11 25 57 68 54 87 87 89 99 107 119 123 124 128 130
252 271 255 221 243 229 228 189 194 189 244 231 231 246 257 254 275 325 355 344 335 322 318 287 282 268 254 285 327 359 334 356 332 297 311 326 348 353 15 35 40 46 63 63 75 93 100 104 112 120 127 122 102 110
251 263 247 238 237 206 191 185 176 212 232 232 245 243 263 285 284 316 343 331 328 324 329 326 310 343 320 328 51 15 355 294 302 309 334 10 8 22 46 53 52 55 66 72 83 93 103 107 112 111 105 96 99 105
247 247 228 200 178 175 178 175 215 231 244 246 260 261 279 268 281 290 312 313 332 316 312 346 328 297 330 336 340 353 323 318 337 342 29 42 48 58 58 57 60 59 66 72 82 84 87 96 96 93 97 98 100 96
212 190 206 187 170 158 183 205 221 258 242 251 249 255 268 278 298 305 294 295 279 290 294 276 243 335 360 316 320 307 321 328 329 345 11 68 67 65 67 68 67 64 62 65 62 71 74 63 75 77 79 92 89 96
162 188 189 177 165 200 215 216 214 256 273 328 262 262 289 311 310 298 290 286 278 276 270 341 16 316 287 302 307 306 320 337 338 340 61 65 65 68 59 50 61 62 60 59 58 63 63 65 66 70 77 87 90 93
160 178 161 160 201 222 256 263 239 253 273 275 298 305 298 291 287 266 283 295 69 23 329 308 311 324 338 335 338 323 333 333 327 326 20 43 46 53 56 53 58 57 54 47 58 59 57 58 58 62 64 66 82 101
156 155 154 186 212 211 253 235 255 306 263 278 316 310 304 297 268 33 312 74 39 175 312 324 333 338 354 21 28 351 335 345 2 25 45 37 29 26 36 40 53 68 58 50 42 52 56 56 57 61 66 78 95 103
157 171 174 183 219 227 263 205 229 247 260 262 240 174 237 263 356 344 297 66 73 1 342 345 348 14 25 24 27 31 9 12 36 45 37 41 48 40 42 42 52 67 63 51 47 74 68 62 62 66 65 86 105 110
171 182 200 203 217 233 205 214 225 248 253 248 244 131 215 194 200 213 263 111 65 353 346 3 24 42 43 38 29 26 28 27 29 45 39 36 38 53 47 50 39 50 87 72 76 96 87 75 78 94 85 104 121 115
170 221 203 240 224 223 204 220 212 229 245 212 253 138 177 180 227 165 193 182 64 7 2 2 24 33 27 15 18 19 20 19 23 46 41 49 49 38 45 48 52 55 33 58 81 101 109 96 85 96 103 114 125 136
229 205 201 196 197 223 205 225 212 296 296 250 296 120 195 236 215 155 115 132 102 40 12 14 15 17 16 10 3 357 2 13 5 53 35 30 28 30 37 38 53 47 30 79 93 118 129 135 101 94 108 117 127 135
249 208 197 217 218 197 257 254 235 253 267 232 205 176 201 207 199 87 144 150 132 92 45 21 7 25 19 2 16 3 10 17 17 32 23 23 24 42 38 35 28 21 16 35 38 97 122 133 127 115 122 119 132 141
261 287 212 182 199 228 263 285 249 240 288 266 233 291 33 59 83 75 149 189 163 83 43 91 31 48 21 29 52 55 27 2 356 8 2 42 39 49 39 38 34 36 31 42 47 72 98 118 130 125 126 125 127 128
230 239 212 207 220 222 212 216 280 249 257 285 347 36 83 78 150 157 162 181 173 190 281 187 29 360 342 11 35 42 25 49 39 43 53 48 42 32 28 28 33 38 33 38 79 82 93 109 118 120 121 121 128 122
233 194 202 179 204 253 239 194 234 273 312 320 61 151 95 135 156 146 140 170 189 214 219 218 4 358 13 312 22 42 36 51 21 60 50 46 25 16 21 32 41 42 52 67 81 87 95 103 111 118 121 117 114 114
139 202 225 227 228 225 209 202 175 118 92 109 127 126 140 204 199 193 218 213 214 218 232 251 347 14 28 41 31 42 37 355 255 32 58 43 14 14 35 40 41 52 74 83 95 107 113 117 126 133 137 133 133 136
195 210 275 310 289 188 174 183 184 207 165 165 152 139 145 154 197 213 211 195 203 193 218 219 275 357 62 58 47 34 75 5 199 221 301 69 85 72 54 45 44 67 88 97 99 110 130 132 138 138 141 144 148 155
212 203 206 213 223 206 202 190 183 193 184 186 168 185 193 193 184 181 180 189 192 195 184 162 122 100 78 70 65 36 43 355 322 227 229 247 6 34 124 97 101 89 93 102 107 109 110 124 142 152 159 163 165 167